TimeMST,TemperatureF,Dew PointF,Humidity,Sea Level PressureIn,VisibilityMPH,Wind Direction,Wind SpeedMPH,Gust SpeedMPH,PrecipitationIn,Events,Conditions,WindDirDegrees,DateUTC
12:15 AM,33.3,27.7,80,30.13,10.0,Calm,Calm,-,N/A,,Clear,0,2013-10-18 07:15:00
12:35 AM,33.3,27.0,78,30.14,10.0,Calm,Calm,-,N/A,,Clear,0,2013-10-18 07:35:00
12:55 AM,32.0,25.9,78,30.14,10.0,SE,4.6,-,N/A,,Clear,140,2013-10-18 07:55:00
1:15 AM,31.6,26.1,80,30.15,10.0,Calm,Calm,-,N/A,,Clear,0,2013-10-18 08:15:00
1:35 AM,33.1,27.1,79,30.15,10.0,Calm,Calm,-,N/A,,Clear,0,2013-10-18 08:35:00
1:55 AM,32.4,26.1,78,30.15,10.0,ESE,3.5,-,N/A,,Clear,110,2013-10-18 08:55:00
2:15 AM,31.8,26.2,80,30.15,10.0,SE,6.9,-,N/A,,Clear,140,2013-10-18 09:15:00
2:35 AM,32.2,26.6,80,30.15,10.0,SSE,4.6,-,N/A,,Clear,150,2013-10-18 09:35:00
2:55 AM,32.0,26.6,80,30.15,10.0,Calm,Calm,-,N/A,,Clear,0,2013-10-18 09:55:00
3:15 AM,32.5,26.8,79,30.15,10.0,Calm,Calm,-,N/A,,Clear,0,2013-10-18 10:15:00
3:35 AM,34.7,27.1,74,30.15,10.0,ESE,4.6,-,N/A,,Clear,120,2013-10-18 10:35:00
3:55 AM,32.9,26.8,78,30.16,10.0,Calm,Calm,-,N/A,,Clear,0,2013-10-18 10:55:00
4:15 AM,31.5,26.4,82,30.16,10.0,ESE,3.5,-,N/A,,Clear,120,2013-10-18 11:15:00
4:35 AM,29.3,25.2,85,30.16,10.0,East,3.5,-,N/A,,Clear,100,2013-10-18 11:35:00
4:55 AM,28.8,25.2,86,30.17,10.0,Calm,Calm,-,N/A,,Clear,0,2013-10-18 11:55:00
5:15 AM,28.8,24.8,85,30.18,10.0,Calm,Calm,-,N/A,,Clear,0,2013-10-18 12:15:00
5:35 AM,29.1,24.6,83,30.18,10.0,ESE,5.8,-,N/A,,Clear,120,2013-10-18 12:35:00
5:55 AM,28.0,24.8,88,30.18,10.0,East,6.9,-,N/A,,Clear,100,2013-10-18 12:55:00
6:15 AM,29.5,25.7,86,30.19,10.0,Calm,Calm,-,N/A,,Clear,0,2013-10-18 13:15:00
6:35 AM,28.9,24.8,84,30.19,10.0,SSE,4.6,-,N/A,,Clear,150,2013-10-18 13:35:00
6:55 AM,27.9,24.3,86,30.20,10.0,East,3.5,-,N/A,,Clear,80,2013-10-18 13:55:00
7:15 AM,30.0,25.9,85,30.21,10.0,SE,4.6,-,N/A,,Clear,130,2013-10-18 14:15:00
7:35 AM,33.1,27.9,81,30.22,10.0,Calm,Calm,-,N/A,,Clear,0,2013-10-18 14:35:00
7:55 AM,37.2,29.1,73,30.23,10.0,Calm,Calm,-,N/A,,Clear,0,2013-10-18 14:55:00
8:15 AM,41.2,28.9,62,30.24,10.0,Calm,Calm,-,N/A,,Clear,0,2013-10-18 15:15:00
8:35 AM,44.4,28.6,54,30.24,10.0,Calm,Calm,-,N/A,,Clear,0,2013-10-18 15:35:00
8:55 AM,48.4,27.7,45,30.24,10.0,Calm,Calm,-,N/A,,Clear,0,2013-10-18 15:55:00
9:15 AM,52.0,27.0,38,30.24,10.0,Calm,Calm,-,N/A,,Clear,0,2013-10-18 16:15:00
9:35 AM,54.3,26.1,34,30.24,10.0,North,3.5,-,N/A,,Clear,350,2013-10-18 16:35:00
9:55 AM,56.1,25.3,31,30.24,10.0,NW,4.6,-,N/A,,Clear,310,2013-10-18 16:55:00
10:15 AM,57.9,25.9,29,30.24,10.0,West,3.5,-,N/A,,Clear,270,2013-10-18 17:15:00
10:35 AM,59.0,24.8,27,30.24,10.0,Calm,Calm,-,N/A,,Clear,0,2013-10-18 17:35:00
10:55 AM,59.9,24.3,26,30.24,10.0,West,4.6,-,N/A,,Clear,260,2013-10-18 17:55:00
11:15 AM,61.5,23.9,24,30.23,10.0,West,3.5,-,N/A,,Clear,260,2013-10-18 18:15:00
11:35 AM,62.4,23.2,22,30.23,10.0,Calm,Calm,-,N/A,,Clear,0,2013-10-18 18:35:00
11:55 AM,63.0,22.6,21,30.22,10.0,Calm,Calm,-,N/A,,Clear,0,2013-10-18 18:55:00
12:15 PM,64.2,22.8,21,30.22,10.0,WNW,5.8,-,N/A,,Clear,300,2013-10-18 19:15:00
12:35 PM,64.9,22.6,20,30.21,10.0,WNW,6.9,-,N/A,,Clear,300,2013-10-18 19:35:00
12:55 PM,65.1,22.5,20,30.20,10.0,WSW,6.9,-,N/A,,Clear,240,2013-10-18 19:55:00
1:15 PM,66.2,22.5,19,30.20,10.0,West,9.2,-,N/A,,Clear,260,2013-10-18 20:15:00
1:35 PM,66.6,23.5,20,30.19,10.0,WSW,5.8,-,N/A,,Clear,250,2013-10-18 20:35:00
1:55 PM,67.1,23.7,19,30.19,10.0,West,9.2,-,N/A,,Clear,280,2013-10-18 20:55:00
2:15 PM,67.3,23.0,19,30.18,10.0,Calm,Calm,-,N/A,,Clear,0,2013-10-18 21:15:00
2:35 PM,67.5,23.4,19,30.18,10.0,WNW,8.1,-,N/A,,Clear,290,2013-10-18 21:35:00
2:55 PM,67.5,23.0,19,30.18,10.0,West,6.9,-,N/A,,Clear,260,2013-10-18 21:55:00
3:15 PM,67.5,22.6,18,30.18,10.0,WNW,6.9,-,N/A,,Clear,300,2013-10-18 22:15:00
3:35 PM,68.0,23.5,19,30.17,10.0,West,8.1,-,N/A,,Clear,270,2013-10-18 22:35:00
3:55 PM,68.4,23.9,19,30.16,10.0,WNW,8.1,-,N/A,,Clear,290,2013-10-18 22:55:00
4:15 PM,68.2,23.5,19,30.16,10.0,WNW,9.2,-,N/A,,Clear,300,2013-10-18 23:15:00
4:35 PM,67.8,22.5,18,30.17,10.0,WNW,11.5,18.4,N/A,,Clear,290,2013-10-18 23:35:00
4:55 PM,67.1,22.3,18,30.17,10.0,West,11.5,-,N/A,,Clear,280,2013-10-18 23:55:00
5:15 PM,65.7,21.6,19,30.18,10.0,WNW,13.8,-,N/A,,Clear,290,2013-10-19 00:15:00
5:35 PM,63.5,19.8,19,30.18,10.0,WNW,11.5,-,N/A,,Clear,290,2013-10-19 00:35:00
5:55 PM,61.2,19.8,20,30.19,10.0,WNW,11.5,16.1,N/A,,Clear,300,2013-10-19 00:55:00
6:15 PM,59.0,19.9,22,30.19,10.0,West,8.1,-,N/A,,Clear,280,2013-10-19 01:15:00
6:35 PM,56.7,20.3,24,30.19,10.0,NW,6.9,-,N/A,,Clear,310,2013-10-19 01:35:00
6:55 PM,54.9,20.5,26,30.19,10.0,North,5.8,-,N/A,,Clear,350,2013-10-19 01:55:00
7:15 PM,50.2,21.6,33,30.20,10.0,North,4.6,-,N/A,,Clear,10,2013-10-19 02:15:00
7:35 PM,48.4,22.8,37,30.21,10.0,Calm,Calm,-,N/A,,Clear,0,2013-10-19 02:35:00
7:55 PM,48.6,22.8,36,30.21,10.0,Calm,Calm,-,N/A,,Clear,0,2013-10-19 02:55:00
8:15 PM,43.7,23.4,45,30.21,10.0,SSE,6.9,-,N/A,,Clear,160,2013-10-19 03:15:00
8:35 PM,42.4,24.3,49,30.21,10.0,Calm,Calm,-,N/A,,Clear,0,2013-10-19 03:35:00
8:55 PM,41.7,25.2,52,30.22,10.0,East,3.5,-,N/A,,Clear,90,2013-10-19 03:55:00
9:15 PM,39.4,25.7,58,30.22,10.0,Calm,Calm,-,N/A,,Clear,0,2013-10-19 04:15:00
9:35 PM,38.8,25.3,58,30.23,10.0,Calm,Calm,-,N/A,,Clear,0,2013-10-19 04:35:00
9:55 PM,37.6,25.2,61,30.23,10.0,SE,8.1,-,N/A,,Clear,130,2013-10-19 04:55:00
10:15 PM,37.6,26.2,64,30.23,10.0,ESE,6.9,-,N/A,,Clear,110,2013-10-19 05:15:00
10:35 PM,40.1,26.4,58,30.24,10.0,Calm,Calm,-,N/A,,Clear,0,2013-10-19 05:35:00
10:55 PM,39.6,26.1,58,30.24,10.0,Calm,Calm,-,N/A,,Clear,0,2013-10-19 05:55:00
11:15 PM,38.8,25.5,59,30.24,10.0,Calm,Calm,-,N/A,,Clear,0,2013-10-19 06:15:00
11:35 PM,35.4,25.0,66,30.25,10.0,East,4.6,-,N/A,,Clear,80,2013-10-19 06:35:00
11:55 PM,35.2,26.4,70,30.25,10.0,Calm,Calm,-,N/A,,Clear,0,2013-10-19 06:55:00